カタログに戻る

STARLINK-35328

運用中通信SSO
NORAD 65652·PAYLOAD·🇺🇸 United States

打ち上げ Sep 19, 2025 から Vandenberg Space Force Base

Loading…

次のパス (今後24時間)

TLE

最新Source: CelesTrak SupGP

元期: Sep 14, 2026, 23:10 UTC

1 65652C 25211A   26257.96576389  .00054206  00000+0  16826-2 0  2578
2 65652  97.2836 298.2492 0001275  91.9052 265.2630 15.33412437    16

AllMySatでSTARLINK-35328をリアルタイム追跡

Download on the App Store